"Sample Date","Sample Time","Sensor Name","Sample Value","Units","Flow Rate","Sample Interval","Sample Volume","Laser Status","Number Channels","Micron Size 0","Counts/Channel 0","Micron Size 1","Counts/Channel 1","Micron Size 2","Counts/Channel 2","Micron Size 3","Counts/Channel 3","Micron Size 4","Counts/Channel 4","Micron Size 5","Counts/Channel 5","Micron Size 6","Counts/Channel 6","Micron Size 7","Counts/Channel 7","Micron Size 8","Counts/Channel 8","Micron Size 9","Counts/Channel 9","Micron Size 10","Counts/Channel 10","Micron Size 11","Counts/Channel 11","Micron Size 12","Counts/Channel 12","Micron Size 13","Counts/Channel 13","Micron Size 14","Counts/Channel 14","Micron Size 15","Counts/Channel 15","Micron Size 16","Counts/Channel 16","Micron Size 17","Counts/Channel 17","Micron Size 18","Counts/Channel 18","Micron Size 19","Counts/Channel 19","Micron Size 20","Counts/Channel 20","Micron Size 21","Counts/Channel 21","Micron Size 22","Counts/Channel 22","Micron Size 23","Counts/Channel 23","Micron Size 24","Counts/Channel 24","Micron Size 25","Counts/Channel 25","Micron Size 26","Counts/Channel 26","Micron Size 27","Counts/Channel 27","Micron Size 28","Counts/Channel 28","Micron Size 29","Counts/Channel 29","Micron Size 30","Counts/Channel 30","Micron Size 31","Counts/Channel 31"
"07/11/06","00:00:02","AMMA06",36741.000,"cc",28319.803,6.00,2831.981,1,6,0.100,14268.000,0.200,16203.000,0.300,5574.000,0.500,562.000,1.000,134.000,5.000,0
"07/11/06","00:00:08","AMMA06",36267.000,"cc",28264.598,6.00,2826.460,1,6,0.100,13929.000,0.200,16049.000,0.300,5549.000,0.500,621.000,1.000,119.000,5.000,0
"07/11/06","00:00:14","AMMA06",36435.000,"cc",28305.291,6.00,2830.529,1,6,0.100,14189.000,0.200,15984.000,0.300,5574.000,0.500,584.000,1.000,104.000,5.000,0
"07/11/06","00:00:20","AMMA06",36438.000,"cc",28317.203,6.00,2831.721,1,6,0.100,14113.000,0.200,16119.000,0.300,5508.000,0.500,610.000,1.000,87.000,5.000,1.000
"07/11/06","00:00:26","AMMA06",36760.000,"cc",28309.129,6.00,2830.913,1,6,0.100,14097.000,0.200,16259.000,0.300,5711.000,0.500,565.000,1.000,128.000,5.000,0
"07/11/06","00:00:32","AMMA06",36854.000,"cc",28302.055,6.00,2830.206,1,6,0.100,14370.000,0.200,16076.000,0.300,5666.000,0.500,614.000,1.000,128.000,5.000,0
"07/11/06","00:00:38","AMMA06",36690.000,"cc",28377.588,6.00,2837.759,1,6,0.100,14161.000,0.200,16131.000,0.300,5657.000,0.500,645.000,1.000,96.000,5.000,0
"07/11/06","00:00:44","AMMA06",36684.000,"cc",28277.910,6.00,2827.791,1,6,0.100,13962.000,0.200,16299.000,0.300,5708.000,0.500,595.000,1.000,120.000,5.000,0
"07/11/06","00:00:50","AMMA06",36660.000,"cc",28372.074,6.00,2837.208,1,6,0.100,14013.000,0.200,16165.000,0.300,5758.000,0.500,611.000,1.000,112.000,5.000,1.000
"07/11/06","00:00:56","AMMA06",36121.000,"cc",28329.664,6.00,2832.967,1,6,0.100,13906.000,0.200,15841.000,0.300,5646.000,0.500,623.000,1.000,105.000,5.000,0
"07/11/06","00:01:02","AMMA06",36608.000,"cc",28310.926,6.00,2831.093,1,6,0.100,14152.000,0.200,16061.000,0.300,5604.000,0.500,660.000,1.000,131.000,5.000,0
"07/11/06","00:01:08","AMMA06",36181.000,"cc",28305.291,6.00,2830.529,1,6,0.100,13966.000,0.200,15922.000,0.300,5605.000,0.500,576.000,1.000,112.000,5.000,0
"07/11/06","00:01:14","AMMA06",36245.000,"cc",28333.209,6.00,2833.321,1,6,0.100,13908.000,0.200,15949.000,0.300,5640.000,0.500,625.000,1.000,123.000,5.000,0
"07/11/06","00:01:20","AMMA06",36197.000,"cc",28300.088,6.00,2830.009,1,6,0.100,14058.000,0.200,15751.000,0.300,5689.000,0.500,592.000,1.000,107.000,5.000,0
"07/11/06","00:01:26","AMMA06",36063.000,"cc",28289.215,6.00,2828.922,1,6,0.100,13849.000,0.200,15866.000,0.300,5658.000,0.500,588.000,1.000,102.000,5.000,0
"07/11/06","00:01:32","AMMA06",36582.000,"cc",28310.918,6.00,2831.092,1,6,0.100,14166.000,0.200,16040.000,0.300,5609.000,0.500,644.000,1.000,123.000,5.000,0
"07/11/06","00:01:38","AMMA06",36845.000,"cc",28313.109,6.00,2831.311,1,6,0.100,14269.000,0.200,16188.000,0.300,5645.000,0.500,621.000,1.000,122.000,5.000,0
"07/11/06","00:01:44","AMMA06",37059.000,"cc",28310.713,6.00,2831.072,1,6,0.100,14605.000,0.200,16167.000,0.300,5551.000,0.500,614.000,1.000,122.000,5.000,0
"07/11/06","00:01:50","AMMA06",37141.000,"cc",28299.039,6.00,2829.904,1,6,0.100,14635.000,0.200,16108.000,0.300,5668.000,0.500,599.000,1.000,131.000,5.000,0
"07/11/06","00:01:56","AMMA06",37067.000,"cc",28349.041,6.00,2834.904,1,6,0.100,14424.000,0.200,16371.000,0.300,5540.000,0.500,615.000,1.000,117.000,5.000,0
"07/11/06","00:02:02","AMMA06",36750.000,"cc",28374.520,6.00,2837.452,1,6,0.100,14444.000,0.200,15960.000,0.300,5605.000,0.500,618.000,1.000,123.000,5.000,0
"07/11/06","00:02:08","AMMA06",36248.000,"cc",28301.680,6.00,2830.168,1,6,0.100,14020.000,0.200,15866.000,0.300,5658.000,0.500,601.000,1.000,103.000,5.000,0
"07/11/06","00:02:14","AMMA06",36464.000,"cc",28307.885,6.00,2830.789,1,6,0.100,14123.000,0.200,16043.000,0.300,5610.000,0.500,584.000,1.000,104.000,5.000,0
"07/11/06","00:02:20","AMMA06",36573.000,"cc",28292.924,6.00,2829.293,1,6,0.100,14102.000,0.200,16125.000,0.300,5632.000,0.500,612.000,1.000,102.000,5.000,0
"07/11/06","00:02:26","AMMA06",36524.000,"cc",28355.938,6.00,2835.594,1,6,0.100,14070.000,0.200,16108.000,0.300,5630.000,0.500,605.000,1.000,111.000,5.000,0
"07/11/06","00:02:32","AMMA06",36432.000,"cc",28284.844,6.00,2828.485,1,6,0.100,14098.000,0.200,16106.000,0.300,5565.000,0.500,540.000,1.000,123.000,5.000,0
"07/11/06","00:02:38","AMMA06",36489.000,"cc",28419.215,6.00,2841.922,1,6,0.100,14230.000,0.200,16002.000,0.300,5558.000,0.500,573.000,1.000,126.000,5.000,0
"07/11/06","00:02:44","AMMA06",36554.000,"cc",28231.920,6.00,2823.192,1,6,0.100,14473.000,0.200,15937.000,0.300,5402.000,0.500,609.000,1.000,133.000,5.000,0
"07/11/06","00:02:50","AMMA06",37042.000,"cc",28332.039,6.00,2833.204,1,6,0.100,14760.000,0.200,16200.000,0.300,5370.000,0.500,582.000,1.000,130.000,5.000,0
"07/11/06","00:02:56","AMMA06",36873.000,"cc",28324.832,6.00,2832.483,1,6,0.100,14723.000,0.200,16004.000,0.300,5419.000,0.500,603.000,1.000,124.000,5.000,0
"07/11/06","00:03:02","AMMA06",36878.000,"cc",28267.869,6.00,2826.787,1,6,0.100,14879.000,0.200,16015.000,0.300,5299.000,0.500,546.000,1.000,138.000,5.000,1.000
"07/11/06","00:03:08","AMMA06",37036.000,"cc",28399.764,6.00,2839.977,1,6,0.100,15007.000,0.200,16012.000,0.300,5293.000,0.500,582.000,1.000,142.000,5.000,0
"07/11/06","00:03:14","AMMA06",37126.000,"cc",28381.397,6.00,2838.140,1,6,0.100,15062.000,0.200,16233.000,0.300,5125.000,0.500,552.000,1.000,154.000,5.000,0
"07/11/06","00:03:20","AMMA06",37599.000,"cc",28319.955,6.00,2831.996,1,6,0.100,15487.000,0.200,16336.000,0.300,4995.000,0.500,598.000,1.000,183.000,5.000,0
"07/11/06","00:03:26","AMMA06",37756.000,"cc",28232.330,6.00,2823.233,1,6,0.100,15508.000,0.200,16231.000,0.300,5278.000,0.500,576.000,1.000,163.000,5.000,0
"07/11/06","00:03:32","AMMA06",38313.000,"cc",28312.584,6.00,2831.259,1,6,0.100,16364.000,0.200,16185.000,0.300,5044.000,0.500,557.000,1.000,163.000,5.000,0
"07/11/06","00:03:38","AMMA06",39743.000,"cc",28364.197,6.00,2836.420,1,6,0.100,17450.000,0.200,16229.000,0.300,5284.000,0.500,601.000,1.000,178.000,5.000,1.000
"07/11/06","00:03:44","AMMA06",40638.000,"cc",28341.258,6.00,2834.126,1,6,0.100,18323.000,0.200,16371.000,0.300,5191.000,0.500,585.000,1.000,168.000,5.000,0
"07/11/06","00:03:50","AMMA06",40545.000,"cc",28293.082,6.00,2829.308,1,6,0.100,18184.000,0.200,16312.000,0.300,5205.000,0.500,632.000,1.000,211.000,5.000,1.000
"07/11/06","00:03:56","AMMA06",40452.000,"cc",28288.766,6.00,2828.877,1,6,0.100,18229.000,0.200,16313.000,0.300,5132.000,0.500,584.000,1.000,194.000,5.000,0
"07/11/06","00:04:02","AMMA06",40656.000,"cc",28374.949,6.00,2837.495,1,6,0.100,18443.000,0.200,16331.000,0.300,5108.000,0.500,581.000,1.000,193.000,5.000,0
"07/11/06","00:04:08","AMMA06",40310.000,"cc",28319.119,6.00,2831.912,1,6,0.100,18112.000,0.200,16110.000,0.300,5264.000,0.500,608.000,1.000,216.000,5.000,0
"07/11/06","00:04:14","AMMA06",40565.000,"cc",28254.068,6.00,2825.407,1,6,0.100,17960.000,0.200,16346.000,0.300,5422.000,0.500,629.000,1.000,208.000,5.000,0
"07/11/06","00:04:20","AMMA06",40349.000,"cc",28285.211,6.00,2828.521,1,6,0.100,17889.000,0.200,16252.000,0.300,5343.000,0.500,649.000,1.000,216.000,5.000,0
"07/11/06","00:04:26","AMMA06",40525.000,"cc",28330.106,6.00,2833.011,1,6,0.100,18045.000,0.200,16174.000,0.300,5453.000,0.500,649.000,1.000,204.000,5.000,0
"07/11/06","00:04:32","AMMA06",40276.000,"cc",28276.100,6.00,2827.610,1,6,0.100,17996.000,0.200,15845.000,0.300,5540.000,0.500,685.000,1.000,210.000,5.000,0
"07/11/06","00:04:38","AMMA06",39988.000,"cc",28323.662,6.00,2832.367,1,6,0.100,17497.000,0.200,16219.000,0.300,5387.000,0.500,694.000,1.000,191.000,5.000,0
"07/11/06","00:04:44","AMMA06",40297.000,"cc",28303.682,6.00,2830.368,1,6,0.100,17810.000,0.200,15952.000,0.300,5674.000,0.500,654.000,1.000,207.000,5.000,0
"07/11/06","00:04:50","AMMA06",40014.000,"cc",28410.729,6.00,2841.073,1,6,0.100,17519.000,0.200,16165.000,0.300,5506.000,0.500,637.000,1.000,187.000,5.000,0
"07/11/06","00:04:56","AMMA06",40052.000,"cc",28331.697,6.00,2833.170,1,6,0.100,17349.000,0.200,16112.000,0.300,5741.000,0.500,660.000,1.000,190.000,5.000,0
"07/11/06","00:05:02","AMMA06",40076.000,"cc",28301.777,6.00,2830.178,1,6,0.100,17567.000,0.200,15980.000,0.300,5637.000,0.500,676.000,1.000,216.000,5.000,0
"07/11/06","00:05:08","AMMA06",40143.000,"cc",28286.766,6.00,2828.677,1,6,0.100,17473.000,0.200,16010.000,0.300,5767.000,0.500,701.000,1.000,192.000,5.000,0
"07/11/06","00:05:14","AMMA06",39721.000,"cc",28266.824,6.00,2826.683,1,6,0.100,17012.000,0.200,16112.000,0.300,5681.000,0.500,714.000,1.000,202.000,5.000,0
"07/11/06","00:05:20","AMMA06",39580.000,"cc",28365.797,6.00,2836.580,1,6,0.100,16965.000,0.200,16045.000,0.300,5691.000,0.500,675.000,1.000,204.000,5.000,0
"07/11/06","00:05:26","AMMA06",39613.000,"cc",28292.104,6.00,2829.210,1,6,0.100,16910.000,0.200,15995.000,0.300,5810.000,0.500,684.000,1.000,214.000,5.000,0
"07/11/06","00:05:32","AMMA06",39791.000,"cc",28315.270,6.00,2831.527,1,6,0.100,16880.000,0.200,16172.000,0.300,5827.000,0.500,720.000,1.000,192.000,5.000,0
"07/11/06","00:05:38","AMMA06",39312.000,"cc",28292.213,6.00,2829.221,1,6,0.100,16399.000,0.200,16115.000,0.300,5875.000,0.500,725.000,1.000,198.000,5.000,0
"07/11/06","00:05:44","AMMA06",39229.000,"cc",28353.619,6.00,2835.362,1,6,0.100,16332.000,0.200,16249.000,0.300,5801.000,0.500,648.000,1.000,199.000,5.000,0
"07/11/06","00:05:50","AMMA06",39076.000,"cc",28295.037,6.00,2829.504,1,6,0.100,16006.000,0.200,16484.000,0.300,5710.000,0.500,693.000,1.000,183.000,5.000,0
"07/11/06","00:05:56","AMMA06",38668.000,"cc",28313.535,6.00,2831.354,1,6,0.100,15465.000,0.200,16426.000,0.300,5929.000,0.500,664.000,1.000,184.000,5.000,0
"07/11/06","00:06:02","AMMA06",38811.000,"cc",28331.404,6.00,2833.141,1,6,0.100,15668.000,0.200,16571.000,0.300,5733.000,0.500,663.000,1.000,175.000,5.000,1.000
"07/11/06","00:06:08","AMMA06",38462.000,"cc",28300.613,6.00,2830.062,1,6,0.100,15264.000,0.200,16480.000,0.300,5836.000,0.500,714.000,1.000,167.000,5.000,1.000
"07/11/06","00:06:14","AMMA06",38700.000,"cc",28322.898,6.00,2832.290,1,6,0.100,15599.000,0.200,16444.000,0.300,5807.000,0.500,710.000,1.000,140.000,5.000,0
"07/11/06","00:06:20","AMMA06",38467.000,"cc",28312.420,6.00,2831.242,1,6,0.100,15294.000,0.200,16503.000,0.300,5818.000,0.500,671.000,1.000,181.000,5.000,0
"07/11/06","00:06:26","AMMA06",38518.000,"cc",28244.785,6.00,2824.479,1,6,0.100,15464.000,0.200,16413.000,0.300,5826.000,0.500,611.000,1.000,204.000,5.000,0
"07/11/06","00:06:32","AMMA06",38693.000,"cc",28363.262,6.00,2836.326,1,6,0.100,15307.000,0.200,16699.000,0.300,5804.000,0.500,669.000,1.000,214.000,5.000,0
"07/11/06","00:06:38","AMMA06",38657.000,"cc",28362.691,6.00,2836.269,1,6,0.100,15375.000,0.200,16614.000,0.300,5804.000,0.500,691.000,1.000,173.000,5.000,0
"07/11/06","00:06:44","AMMA06",38606.000,"cc",28304.287,6.00,2830.429,1,6,0.100,15021.000,0.200,16815.000,0.300,5991.000,0.500,629.000,1.000,150.000,5.000,0
"07/11/06","00:06:50","AMMA06",38451.000,"cc",28266.234,6.00,2826.624,1,6,0.100,15254.000,0.200,16670.000,0.300,5719.000,0.500,624.000,1.000,184.000,5.000,0
"07/11/06","00:06:56","AMMA06",38449.000,"cc",28317.197,6.00,2831.720,1,6,0.100,15038.000,0.200,16701.000,0.300,5884.000,0.500,637.000,1.000,189.000,5.000,0
"07/11/06","00:07:02","AMMA06",38244.000,"cc",28330.781,6.00,2833.078,1,6,0.100,14957.000,0.200,16812.000,0.300,5707.000,0.500,615.000,1.000,151.000,5.000,2.000
"07/11/06","00:07:08","AMMA06",38025.000,"cc",28356.641,6.00,2835.664,1,6,0.100,14940.000,0.200,16649.000,0.300,5667.000,0.500,608.000,1.000,161.000,5.000,0
"07/11/06","00:07:14","AMMA06",38561.000,"cc",28308.688,6.00,2830.869,1,6,0.100,15218.000,0.200,16882.000,0.300,5670.000,0.500,647.000,1.000,144.000,5.000,0
"07/11/06","00:07:20","AMMA06",38431.000,"cc",28331.273,6.00,2833.127,1,6,0.100,15222.000,0.200,16738.000,0.300,5723.000,0.500,587.000,1.000,161.000,5.000,0
"07/11/06","00:07:26","AMMA06",38715.000,"cc",28324.838,6.00,2832.484,1,6,0.100,15155.000,0.200,17078.000,0.300,5717.000,0.500,612.000,1.000,153.000,5.000,0
"07/11/06","00:07:32","AMMA06",38853.000,"cc",28277.465,6.00,2827.747,1,6,0.100,15787.000,0.200,16667.000,0.300,5672.000,0.500,561.000,1.000,166.000,5.000,0
"07/11/06","00:07:38","AMMA06",39050.000,"cc",28351.357,6.00,2835.136,1,6,0.100,15324.000,0.200,17186.000,0.300,5810.000,0.500,587.000,1.000,142.000,5.000,1.000
"07/11/06","00:07:44","AMMA06",39018.000,"cc",28304.916,6.00,2830.492,1,6,0.100,15626.000,0.200,17041.000,0.300,5609.000,0.500,583.000,1.000,159.000,5.000,0
"07/11/06","00:07:50","AMMA06",39203.000,"cc",28327.838,6.00,2832.784,1,6,0.100,15761.000,0.200,17146.000,0.300,5527.000,0.500,609.000,1.000,160.000,5.000,0
"07/11/06","00:07:56","AMMA06",39142.000,"cc",28365.984,6.00,2836.599,1,6,0.100,15800.000,0.200,17069.000,0.300,5533.000,0.500,554.000,1.000,186.000,5.000,0
"07/11/06","00:08:02","AMMA06",38932.000,"cc",28300.775,6.00,2830.078,1,6,0.100,15779.000,0.200,16961.000,0.300,5424.000,0.500,572.000,1.000,196.000,5.000,0
"07/11/06","00:08:08","AMMA06",38899.000,"cc",28288.139,6.00,2828.814,1,6,0.100,15774.000,0.200,16928.000,0.300,5478.000,0.500,569.000,1.000,150.000,5.000,0
"07/11/06","00:08:14","AMMA06",39142.000,"cc",28339.340,6.00,2833.934,1,6,0.100,15556.000,0.200,17321.000,0.300,5514.000,0.500,573.000,1.000,178.000,5.000,0
"07/11/06","00:08:20","AMMA06",38922.000,"cc",28310.541,6.00,2831.054,1,6,0.100,15808.000,0.200,17112.000,0.300,5247.000,0.500,571.000,1.000,184.000,5.000,0
"07/11/06","00:08:26","AMMA06",39135.000,"cc",28273.191,6.00,2827.319,1,6,0.100,15773.000,0.200,17131.000,0.300,5485.000,0.500,578.000,1.000,168.000,5.000,0
"07/11/06","00:08:32","AMMA06",39026.000,"cc",28367.113,6.00,2836.711,1,6,0.100,15828.000,0.200,17192.000,0.300,5289.000,0.500,523.000,1.000,194.000,5.000,0
"07/11/06","00:08:38","AMMA06",38890.000,"cc",28330.729,6.00,2833.073,1,6,0.100,15748.000,0.200,17141.000,0.300,5304.000,0.500,559.000,1.000,138.000,5.000,0
"07/11/06","00:08:44","AMMA06",39313.000,"cc",28314.369,6.00,2831.437,1,6,0.100,15910.000,0.200,17380.000,0.300,5274.000,0.500,591.000,1.000,158.000,5.000,0
"07/11/06","00:08:50","AMMA06",39144.000,"cc",28252.963,6.00,2825.296,1,6,0.100,15802.000,0.200,17434.000,0.300,5164.000,0.500,572.000,1.000,172.000,5.000,0
"07/11/06","00:08:56","AMMA06",39583.000,"cc",28350.320,6.00,2835.032,1,6,0.100,16045.000,0.200,17414.000,0.300,5432.000,0.500,533.000,1.000,159.000,5.000,0
"07/11/06","00:09:02","AMMA06",39073.000,"cc",28317.383,6.00,2831.739,1,6,0.100,15658.000,0.200,17398.000,0.300,5283.000,0.500,555.000,1.000,179.000,5.000,0
"07/11/06","00:09:08","AMMA06",39351.000,"cc",28294.281,6.00,2829.428,1,6,0.100,15955.000,0.200,17527.000,0.300,5191.000,0.500,519.000,1.000,159.000,5.000,0
"07/11/06","00:09:14","AMMA06",39295.000,"cc",28299.412,6.00,2829.941,1,6,0.100,15923.000,0.200,17416.000,0.300,5217.000,0.500,564.000,1.000,175.000,5.000,0
"07/11/06","00:09:20","AMMA06",39602.000,"cc",28336.656,6.00,2833.666,1,6,0.100,16338.000,0.200,17282.000,0.300,5267.000,0.500,560.000,1.000,155.000,5.000,0
"07/11/06","00:09:26","AMMA06",39791.000,"cc",28382.908,6.00,2838.291,1,6,0.100,16566.000,0.200,17161.000,0.300,5303.000,0.500,599.000,1.000,162.000,5.000,0
"07/11/06","00:09:32","AMMA06",39753.000,"cc",28294.578,6.00,2829.458,1,6,0.100,16461.000,0.200,17279.000,0.300,5269.000,0.500,573.000,1.000,171.000,5.000,0
"07/11/06","00:09:38","AMMA06",39867.000,"cc",28250.838,6.00,2825.084,1,6,0.100,16547.000,0.200,17248.000,0.300,5376.000,0.500,553.000,1.000,143.000,5.000,0
"07/11/06","00:09:44","AMMA06",40599.000,"cc",28347.107,6.00,2834.711,1,6,0.100,17257.000,0.200,17229.000,0.300,5396.000,0.500,544.000,1.000,173.000,5.000,0
"07/11/06","00:09:50","AMMA06",40666.000,"cc",28232.719,6.00,2823.272,1,6,0.100,17198.000,0.200,17286.000,0.300,5476.000,0.500,548.000,1.000,158.000,5.000,0
"07/11/06","00:09:56","AMMA06",41173.000,"cc",28374.361,6.00,2837.436,1,6,0.100,17538.000,0.200,17413.000,0.300,5492.000,0.500,565.000,1.000,165.000,5.000,0
"07/11/06","00:10:02","AMMA06",41476.000,"cc",28310.320,6.00,2831.032,1,6,0.100,17907.000,0.200,17364.000,0.300,5442.000,0.500,590.000,1.000,173.000,5.000,0
"07/11/06","00:10:08","AMMA06",41887.000,"cc",28374.793,6.00,2837.480,1,6,0.100,18128.000,0.200,17369.000,0.300,5604.000,0.500,617.000,1.000,169.000,5.000,0
"07/11/06","00:10:14","AMMA06",41728.000,"cc",28288.494,6.00,2828.850,1,6,0.100,18289.000,0.200,17112.000,0.300,5587.000,0.500,573.000,1.000,167.000,5.000,0
"07/11/06","00:10:20","AMMA06",41772.000,"cc",28355.553,6.00,2835.555,1,6,0.100,18117.000,0.200,17245.000,0.300,5625.000,0.500,608.000,1.000,177.000,5.000,0
"07/11/06","00:10:26","AMMA06",41835.000,"cc",28339.037,6.00,2833.904,1,6,0.100,18119.000,0.200,17352.000,0.300,5628.000,0.500,565.000,1.000,171.000,5.000,0
"07/11/06","00:10:32","AMMA06",41493.000,"cc",28366.229,6.00,2836.623,1,6,0.100,17902.000,0.200,17086.000,0.300,5705.000,0.500,613.000,1.000,186.000,5.000,1.000
"07/11/06","00:10:38","AMMA06",41397.000,"cc",28234.635,6.00,2823.464,1,6,0.100,17995.000,0.200,16944.000,0.300,5642.000,0.500,652.000,1.000,164.000,5.000,0
"07/11/06","00:10:44","AMMA06",41737.000,"cc",28325.971,6.00,2832.597,1,6,0.100,18070.000,0.200,17237.000,0.300,5653.000,0.500,615.000,1.000,162.000,5.000,0
"07/11/06","00:10:50","AMMA06",41665.000,"cc",28287.898,6.00,2828.790,1,6,0.100,18011.000,0.200,17282.000,0.300,5620.000,0.500,593.000,1.000,159.000,5.000,0
"07/11/06","00:10:56","AMMA06",42021.000,"cc",28289.486,6.00,2828.949,1,6,0.100,18113.000,0.200,17442.000,0.300,5652.000,0.500,609.000,1.000,205.000,5.000,0
"07/11/06","00:11:02","AMMA06",41735.000,"cc",28340.904,6.00,2834.091,1,6,0.100,17874.000,0.200,17380.000,0.300,5686.000,0.500,614.000,1.000,181.000,5.000,0
"07/11/06","00:11:08","AMMA06",41926.000,"cc",28314.412,6.00,2831.441,1,6,0.100,18159.000,0.200,17116.000,0.300,5843.000,0.500,635.000,1.000,173.000,5.000,0
"07/11/06","00:11:14","AMMA06",41985.000,"cc",28337.721,6.00,2833.772,1,6,0.100,18137.000,0.200,17214.000,0.300,5858.000,0.500,615.000,1.000,161.000,5.000,0
"07/11/06","00:11:20","AMMA06",42267.000,"cc",28351.295,6.00,2835.130,1,6,0.100,18358.000,0.200,17343.000,0.300,5772.000,0.500,613.000,1.000,181.000,5.000,0
"07/11/06","00:11:26","AMMA06",41955.000,"cc",28256.363,6.00,2825.637,1,6,0.100,18083.000,0.200,17234.000,0.300,5870.000,0.500,619.000,1.000,149.000,5.000,0
"07/11/06","00:11:32","AMMA06",42257.000,"cc",28283.717,6.00,2828.372,1,6,0.100,18355.000,0.200,17281.000,0.300,5828.000,0.500,601.000,1.000,192.000,5.000,0
"07/11/06","00:11:38","AMMA06",42079.000,"cc",28315.160,6.00,2831.516,1,6,0.100,18240.000,0.200,17362.000,0.300,5706.000,0.500,610.000,1.000,161.000,5.000,0
"07/11/06","00:11:44","AMMA06",41992.000,"cc",28341.441,6.00,2834.144,1,6,0.100,18325.000,0.200,17104.000,0.300,5801.000,0.500,581.000,1.000,180.000,5.000,1.000
"07/11/06","00:11:50","AMMA06",42729.000,"cc",28368.252,6.00,2836.825,1,6,0.100,18789.000,0.200,17319.000,0.300,5849.000,0.500,622.000,1.000,150.000,5.000,0
"07/11/06","00:11:56","AMMA06",42395.000,"cc",28322.440,6.00,2832.244,1,6,0.100,18631.000,0.200,17162.000,0.300,5805.000,0.500,626.000,1.000,171.000,5.000,0
"07/11/06","00:12:02","AMMA06",42291.000,"cc",28288.795,6.00,2828.880,1,6,0.100,18384.000,0.200,17318.000,0.300,5710.000,0.500,688.000,1.000,191.000,5.000,0
"07/11/06","00:12:08","AMMA06",42218.000,"cc",28307.578,6.00,2830.758,1,6,0.100,18524.000,0.200,17153.000,0.300,5802.000,0.500,560.000,1.000,179.000,5.000,0
"07/11/06","00:12:14","AMMA06",42233.000,"cc",28279.154,6.00,2827.916,1,6,0.100,18472.000,0.200,16971.000,0.300,5896.000,0.500,699.000,1.000,195.000,5.000,0
"07/11/06","00:12:20","AMMA06",42441.000,"cc",28295.693,6.00,2829.570,1,6,0.100,18692.000,0.200,17196.000,0.300,5762.000,0.500,616.000,1.000,175.000,5.000,0
"07/11/06","00:12:26","AMMA06",43018.000,"cc",28360.428,6.00,2836.043,1,6,0.100,19004.000,0.200,17364.000,0.300,5825.000,0.500,637.000,1.000,188.000,5.000,0
"07/11/06","00:12:32","AMMA06",42792.000,"cc",28357.576,6.00,2835.758,1,6,0.100,18761.000,0.200,17306.000,0.300,5910.000,0.500,638.000,1.000,177.000,5.000,0
"07/11/06","00:12:38","AMMA06",43079.000,"cc",28272.926,6.00,2827.293,1,6,0.100,18944.000,0.200,17443.000,0.300,5860.000,0.500,660.000,1.000,172.000,5.000,0
"07/11/06","00:12:44","AMMA06",42544.000,"cc",28290.008,6.00,2829.001,1,6,0.100,18503.000,0.200,17342.000,0.300,5851.000,0.500,645.000,1.000,203.000,5.000,0
"07/11/06","00:12:50","AMMA06",42645.000,"cc",28303.389,6.00,2830.339,1,6,0.100,18781.000,0.200,17225.000,0.300,5858.000,0.500,601.000,1.000,180.000,5.000,0
"07/11/06","00:12:56","AMMA06",42790.000,"cc",28228.779,6.00,2822.878,1,6,0.100,18707.000,0.200,17360.000,0.300,5872.000,0.500,667.000,1.000,184.000,5.000,0
"07/11/06","00:13:02","AMMA06",43782.000,"cc",28412.701,6.00,2841.270,1,6,0.100,19309.000,0.200,17558.000,0.300,6056.000,0.500,679.000,1.000,180.000,5.000,0
"07/11/06","00:13:08","AMMA06",43291.000,"cc",28361.440,6.00,2836.144,1,6,0.100,18996.000,0.200,17420.000,0.300,5986.000,0.500,703.000,1.000,186.000,5.000,0
"07/11/06","00:13:14","AMMA06",43055.000,"cc",28364.486,6.00,2836.449,1,6,0.100,18812.000,0.200,17422.000,0.300,5954.000,0.500,687.000,1.000,180.000,5.000,0
"07/11/06","00:13:20","AMMA06",43084.000,"cc",28297.510,6.00,2829.751,1,6,0.100,18799.000,0.200,17375.000,0.300,6031.000,0.500,692.000,1.000,186.000,5.000,1.000
"07/11/06","00:13:26","AMMA06",43275.000,"cc",28290.092,6.00,2829.009,1,6,0.100,19053.000,0.200,17340.000,0.300,5991.000,0.500,696.000,1.000,195.000,5.000,0
"07/11/06","00:13:32","AMMA06",43189.000,"cc",28344.295,6.00,2834.430,1,6,0.100,19023.000,0.200,17335.000,0.300,5976.000,0.500,653.000,1.000,202.000,5.000,0
"07/11/06","00:13:38","AMMA06",43083.000,"cc",28322.705,6.00,2832.271,1,6,0.100,18921.000,0.200,17305.000,0.300,5987.000,0.500,703.000,1.000,167.000,5.000,0
"07/11/06","00:13:44","AMMA06",42927.000,"cc",28332.594,6.00,2833.260,1,6,0.100,18717.000,0.200,17370.000,0.300,5958.000,0.500,713.000,1.000,169.000,5.000,0
"07/11/06","00:13:50","AMMA06",42990.000,"cc",28248.057,6.00,2824.806,1,6,0.100,19048.000,0.200,17088.000,0.300,5992.000,0.500,696.000,1.000,166.000,5.000,0
"07/11/06","00:13:56","AMMA06",43695.000,"cc",28361.627,6.00,2836.163,1,6,0.100,19444.000,0.200,17226.000,0.300,6063.000,0.500,777.000,1.000,185.000,5.000,0
"07/11/06","00:14:02","AMMA06",43682.000,"cc",28358.668,6.00,2835.867,1,6,0.100,19538.000,0.200,17256.000,0.300,6110.000,0.500,603.000,1.000,175.000,5.000,0
"07/11/06","00:14:08","AMMA06",43520.000,"cc",28290.301,6.00,2829.030,1,6,0.100,19523.000,0.200,17298.000,0.300,5774.000,0.500,727.000,1.000,198.000,5.000,0
"07/11/06","00:14:14","AMMA06",43285.000,"cc",28328.856,6.00,2832.886,1,6,0.100,19457.000,0.200,17250.000,0.300,5757.000,0.500,616.000,1.000,205.000,5.000,0